77P/Longmore (2023)

Japanese version
Home page
Updated on March 5, 2023

---------------------------------------------------------------------

* Profile

* Pictures

* Orbital Elements

Epoch 2023 Feb. 25.0 TT = JDT 2460000.5
T 2023 Apr. 3.13045 TT                                  Rudenko
q   2.3487629            (2000.0)            P               Q
n   0.14286820     Peri.  196.73432     -0.85913026     +0.50087465
a   3.6239233      Node    14.76816     -0.40958370     -0.55000066
e   0.3518729      Incl.   24.31891     -0.30681655     -0.66829922
P   6.90
>From 2004 observations 1975 Aug. 11-2022 Dec. 22, mean residual 0".8.
     Nongravitational parameters A1 = +0.11, A2 = -0.0485.

* Finding Charts

* Magnitudes Graph

        H = 14.0  G = 0.15               [    ,-427]  (             - 2022 Jan. 31)
        m1 = 4.0 + 5 log d + 25.0 log r  [-427, 445]  (2022 Jan. 31 - 2024 June 21)
        H = 14.0  G = 0.15               [ 445,    ]  (2024 June 21 -             )

---------------------------------------------------------------------

The orbital elements are published on M.P.E.C. 2022-Y114.
The charts are made with StellaNavigator Ver.10 (AstroArts).
The magnitudes graphs are made with Comet for Windows.

---------------------------------------------------------------------

Copyright(C) Seiichi Yoshida (comet@aerith.net). All rights reserved.